Stockton, CA

4:19 AM PDT on May 26, 2017 (GMT -0700)
Stockton Metro

Weather History for KSCK - April, 2013

Change the Weather History Date:

Monday, April 22, 2013

  Actual Average Record
Temperature  
Mean Temperature 69 °F -  
Max Temperature 88 °F 74 °F 96 °F (2009)
Min Temperature 50 °F 47 °F 38 °F (1963)
Degree Days  
Heating Degree Days 0 5  
Month to date heating degree days 74 154  
Since 1 July heating degree days 2298 2540  
Cooling Degree Days 4 1  
Month to date cooling degree days 12 5  
Year to date cooling degree days 12 5  
Growing Degree Days 19 (Base 50)    
Moisture  
Dew Point 41 °F    
Average Humidity 47    
Maximum Humidity 77    
Minimum Humidity 16    
Precipitation  
Precipitation 0.00 in 0.03 in 0.41 in (1988)
Month to date precipitation 0.41 0.78  
Year to date precipitation 2.77 8.22  
Since 1 July precipitation 9.89  
Snow  
Snow 0.00 in - - ()
Month to date snowfall 0.0  
Since 1 July snowfall 0.0  
Snow Depth -    
Sea Level Pressure  
Sea Level Pressure 29.89 in    
Wind  
Wind Speed 8 mph (NW)    
Max Wind Speed 18 mph    
Max Gust Speed 24 mph    
Visibility 10 miles    
Events      
T = Trace of Precipitation, MM = Missing Value Source: NWS Daily Summary

Daily Weather History Graph

Daily Weather History Graph

Search for Another Location

Airport or City:

Trip Planner

Search our weather history database for the weather conditions in past years. The results will help you decide how hot, cold, wet, or windy it might be!

Date:

Astronomy

Apr. 22, 2013 Rise Set
Actual Time 6:19 AM PDT 7:47 PM PDT
Civil Twilight 5:52 AM PDT 8:15 PM PDT
Nautical Twilight 5:18 AM PDT 8:48 PM PDT
Astronomical Twilight 4:44 AM PDT 9:23 PM PDT
Moon 4:45 PM PDT (4/22) 4:13 AM PDT (4/22)
Length of Visible Light 14h 23m
Length of Day
13h 27m
Waxing Gibbous, 88% of the Moon is Illuminated
Apr 22
Waxing Gibbous
Apr 25
Full
May 2
Last Quarter
May 9
New
May 17
First Quarter

Hourly Weather History & Observations

Time (PDT) Temp. Dew Point Humidity Pressure Visibility Wind Dir Wind Speed Gust Speed Precip Events Conditions
12:55 AM 62.1 °F 46.9 °F 58% 29.93 in 10.0 mi West 3.5 mph - N/A   Clear
1:55 AM 57.9 °F 45.0 °F 62% 29.93 in 10.0 mi NE 4.6 mph - N/A   Clear
2:55 AM 57.0 °F 46.9 °F 69% 29.91 in 10.0 mi NNE 3.5 mph - N/A   Clear
3:55 AM 53.1 °F 46.0 °F 77% 29.92 in 10.0 mi SSW 4.6 mph - N/A   Clear
4:55 AM 51.1 °F 45.0 °F 80% 29.91 in 10.0 mi WSW 6.9 mph - N/A   Clear
5:55 AM 53.1 °F 46.0 °F 77% 29.92 in 10.0 mi West 6.9 mph - N/A   Clear
6:55 AM 52.0 °F 45.0 °F 77% 29.94 in 10.0 mi WSW 4.6 mph - N/A   Clear
7:55 AM 61.0 °F 48.0 °F 62% 29.96 in 10.0 mi NW 3.5 mph - N/A   Clear
8:55 AM 69.1 °F 46.0 °F 44% 29.96 in 10.0 mi NW 10.4 mph - N/A   Clear
9:55 AM 73.0 °F 46.0 °F 38% 29.95 in 10.0 mi NNW 6.9 mph - N/A   Clear
10:55 AM 77.0 °F 44.1 °F 31% 29.95 in 10.0 mi WNW 11.5 mph - N/A   Clear
11:55 AM 80.1 °F 45.0 °F 29% 29.94 in 10.0 mi NW 13.8 mph - N/A   Clear
12:55 PM 82.9 °F 46.0 °F 27% 29.91 in 10.0 mi NNW 11.5 mph - N/A   Clear
1:55 PM 86.0 °F 41.0 °F 20% 29.89 in 10.0 mi NNW 13.8 mph 19.6 mph N/A   Clear
2:55 PM 87.1 °F 42.1 °F 21% 29.86 in 10.0 mi North 10.4 mph 19.6 mph N/A   Clear
3:55 PM 88.0 °F 41.0 °F 19% 29.84 in 10.0 mi North 13.8 mph 21.9 mph N/A   Clear
4:55 PM 88.0 °F 35.1 °F 15% 29.82 in 10.0 mi NNW 10.4 mph 23.0 mph N/A   Clear
5:55 PM 86.0 °F 32.0 °F 14% 29.82 in 10.0 mi NNW 13.8 mph 19.6 mph N/A   Clear
6:55 PM 82.0 °F 32.0 °F 16% 29.81 in 10.0 mi NNW 11.5 mph - N/A   Clear
7:55 PM 78.1 °F 30.0 °F 17% 29.82 in 10.0 mi NW 9.2 mph - N/A   Clear
8:55 PM 75.9 °F 30.0 °F 19% 29.83 in 10.0 mi NW 10.4 mph - N/A   Clear
9:55 PM 70.0 °F 36.0 °F 29% 29.85 in 10.0 mi WNW 12.7 mph - N/A   Clear
10:55 PM 69.1 °F 39.9 °F 35% 29.84 in 10.0 mi WNW 12.7 mph - N/A   Clear
11:55 PM 66.9 °F 37.0 °F 33% 29.83 in 10.0 mi NW 13.8 mph - N/A   Clear